Tracking 29892 objects as of 21-Nov-2024
HD Live streaming from Space Station
objects crossing your sky now

STARLINK-30531

Track STARLINK-30531 now!
10-day predictions
STARLINK-30531 is classified as:


NORAD ID: 57998
Int'l Code: 2023-153H
Perigee: 565.2 km
Apogee: 567.2 km
Inclination: 43.0 °
Period: 95.8 minutes
Semi major axis: 6937 km
RCS: Unknown
Launch date: October 5, 2023
Source: United States (US)
Launch site: AIR FORCE EASTERN TEST RANGE (AFETR)
Your satellite tracking list
Your tracking list is empty




NASA's NSSDC Master Catalog

Two Line Element Set (TLE):
1 57998U 23153H   24325.79911304 -.00003368  00000-0 -23443-3 0  9993
2 57998  43.0019 123.5117 0001441 278.7386  81.3293 15.02527850 63592
Source of the keplerian elements: AFSPC